Orbital Elements at Epoch 2454787.5 (2008-Nov-17.0) TDB
Reference: JPL 33 (heliocentric ecliptic J2000)
Element | Value | Uncertainty (1-sigma) | Units |
e | .4180949726414225 | 6.0767e-07 | |
a | 4.511788051435455 | 7.9816e-07 | au |
q | 2.625432149506652 | 2.4968e-06 | au |
i | 11.77968038734452 | 1.6245e-05 | deg |
node | 131.4963398852575 | 0.00014833 | deg |
peri | 104.8350120016027 | 0.00081537 | deg |
M | 169.8047538742992 | 0.00031596 | deg |
tp | 2453136.417381769955 (2004-May-10.91738177) | 0.0026554 | TDB |
period | 3500.430517998472 9.58 | 0.00092887 2.543e-06 | d yr |
n | .1028444924557012 | 2.7291e-08 | deg/d |
Q | 6.398143953364259 | 1.1319e-06 | au |
|
| | Orbit Determination Parameters
Additional Information
|